Las Americas International Airport

Airport
ICAO code: 
MDSD
IATA Code: 
SDQ
Summary
ICAO Region: 
CARSAM
Territory: 
Location: 
Punta Caucedo, Dominican Republic
Serving: 
Santo Domingo
Elevation: 
59 ft
Coordinates: 
Aerial View: 
18° 25' 46.819" N, 69° 40' 11.382" W
Airport WX: 
Tropical Revolving Storm
Metar
Observation
MDSD 221200Z 03004KT 9999 FEW016 20/20 Q1019
Station
Las Americas
Date/Time
2022-01-22 12:00:00
Wind direction
30°
Wind speed
04 kts
Lowest cloud amount
few clouds
Temperature
20°C
Dew point
20°C
Humidity
100%
QNH
1019 hPa
Weather condition
n/a

Las Américas International Airport is an international airport located in Punta Caucedo, near Santo Domingo and Boca Chica in the Dominican Republic.

Climatology

Tropical Monsoon climate (Köppen climate classification Am) - monthly mean temperatures above 18°C in every month of the year and features wet and dry seasons. A tropical monsoon climate typically features less pronounced dry seasons than a tropical savanna climate and see less variance in temperatures during the course of the year. The driest month nearly always occurs at or soon after the "winter" solstice.

Runways

Designator Length Width Surface Rops
17/35 3353 61 ASP Yes/Yes
Airport map: 
Aerial View: 

SKYbrary Partners:

Safety knowledge contributed by: